XAHHH HELX-HECA

Flight info

Callsign XAHHH
Flight time N/A
Altitude 24000
Route LXR A727 CVO
Aircraft P180/L-SBDFGM3RWXY/LB1

Departure

Time 2026-04-24 19:34
Airport Luxor International Airport (HELX)

Arrival

Time N/A
Airport Cairo International Airport (HECA)
Time Latitude Longitude Altitude Speed Heading
2026-04-24 19:13 25.67473 32.70209 282 ft 0 kts 295°
2026-04-24 19:26 25.67477 32.70222 282 ft 2 kts 172°
2026-04-24 19:26 25.67482 32.70220 282 ft 0 kts 142°
2026-04-24 19:30 25.67417 32.70268 283 ft 34 kts 163°
2026-04-24 19:31 25.67195 32.70206 284 ft 33 kts 211°
2026-04-24 19:31 25.67059 32.70224 285 ft 16 kts 114°
2026-04-24 19:31 25.66943 32.70394 285 ft 27 kts 177°
2026-04-24 19:31 25.66624 32.70248 288 ft 112 kts 203°
2026-04-24 19:32 25.65923 32.69934 294 ft 48 kts 182°
2026-04-24 19:32 25.65872 32.69971 295 ft 20 kts 73°
2026-04-24 19:32 25.66000 32.70241 293 ft 38 kts 29°
2026-04-24 19:32 25.66209 32.70240 293 ft 28 kts
2026-04-24 19:33 25.66304 32.70266 294 ft 0 kts 19°
2026-04-24 19:33 25.66362 32.70288 291 ft 54 kts 19°
2026-04-24 19:33 25.67131 32.70637 430 ft 162 kts 22°
2026-04-24 19:34 25.68319 32.71185 1055 ft 209 kts 22°
2026-04-24 19:34 25.69718 32.72103 1469 ft 247 kts 39°
2026-04-24 19:34 25.70872 32.73372 2985 ft 226 kts 43°
2026-04-24 19:34 25.71942 32.74552 4371 ft 200 kts 40°
2026-04-24 19:35 25.72986 32.75454 4892 ft 188 kts 33°
2026-04-24 19:35 25.74102 32.76255 5117 ft 192 kts 30°
2026-04-24 19:35 25.75371 32.76651 5418 ft 189 kts 357°
2026-04-24 19:35 25.76634 32.76365 5847 ft 182 kts 341°
2026-04-24 19:36 25.77821 32.75961 6276 ft 176 kts 341°
2026-04-24 19:36 25.78967 32.75598 6682 ft 170 kts 342°
2026-04-24 19:36 25.80092 32.75254 7097 ft 165 kts 341°
2026-04-24 19:36 25.81182 32.74922 7518 ft 159 kts 341°
2026-04-24 19:37 25.82230 32.74601 7942 ft 153 kts 341°
2026-04-24 19:37 25.82904 32.74394 8226 ft 150 kts 341°
2026-04-24 19:37 25.84211 32.73994 8805 ft 141 kts 340°
2026-04-24 19:37 25.85131 32.73713 9238 ft 133 kts 340°
2026-04-24 19:38 25.85985 32.73452 9670 ft 124 kts 339°
2026-04-24 19:38 25.86784 32.73213 10046 ft 114 kts 339°
2026-04-24 19:38 25.87539 32.72985 10317 ft 111 kts 338°
2026-04-24 19:38 25.88277 32.72760 10582 ft 109 kts 338°
2026-04-24 19:39 25.89010 32.72534 10817 ft 109 kts 337°
2026-04-24 19:39 25.89741 32.72309 11042 ft 109 kts 337°
2026-04-24 19:39 25.90494 32.72073 11350 ft 128 kts 338°
2026-04-24 19:39 25.91486 32.71757 11864 ft 168 kts 339°
2026-04-24 19:40 25.92738 32.71366 12409 ft 205 kts 340°
2026-04-24 19:40 25.94219 32.70911 12956 ft 235 kts 341°
2026-04-24 19:40 25.95886 32.70399 13496 ft 259 kts 341°
2026-04-24 19:40 25.97689 32.69844 13963 ft 277 kts 341°
2026-04-24 19:41 25.99536 32.69278 14399 ft 274 kts 341°
2026-04-24 19:41 26.01371 32.68716 14834 ft 273 kts 340°
2026-04-24 19:41 26.03170 32.68164 15256 ft 271 kts 340°
2026-04-24 19:41 26.04958 32.67615 15908 ft 260 kts 339°
2026-04-24 19:42 26.06667 32.67091 16650 ft 249 kts 338°
2026-04-24 19:42 26.08301 32.66589 17398 ft 238 kts 338°
2026-04-24 19:42 26.09862 32.66107 18153 ft 227 kts 336°
2026-04-24 19:42 26.11348 32.65649 18823 ft 216 kts 336°
2026-04-24 19:43 26.12758 32.65215 19500 ft 204 kts 335°
2026-04-24 19:43 26.14084 32.64811 20195 ft 191 kts 335°
2026-04-24 19:43 26.15355 32.64630 20875 ft 190 kts
2026-04-24 19:43 26.16584 32.64957 21565 ft 167 kts 344°
2026-04-24 19:44 26.17451 32.64432 22128 ft 131 kts 298°
2026-04-24 19:44 26.18074 32.63724 22610 ft 125 kts 300°
2026-04-24 19:44 26.18760 32.63115 22985 ft 132 kts 321°
2026-04-24 19:44 26.19663 32.62795 23327 ft 137 kts 331°
2026-04-24 19:45 26.20575 32.62508 23608 ft 135 kts 330°
2026-04-24 19:45 26.21508 32.62204 23741 ft 150 kts 331°
2026-04-24 19:45 26.22591 32.61852 23818 ft 176 kts 333°
2026-04-24 19:45 26.23870 32.61447 23828 ft 206 kts 335°
2026-04-24 19:46 26.25344 32.60994 23829 ft 233 kts 336°
2026-04-24 19:46 26.26990 32.60492 23822 ft 256 kts 337°
2026-04-24 19:46 26.28778 32.59946 23815 ft 276 kts 338°
2026-04-24 19:46 26.30697 32.59355 23820 ft 293 kts 338°
2026-04-24 19:47 26.32717 32.58730 23809 ft 308 kts 338°
2026-04-24 19:47 26.34822 32.58079 23807 ft 320 kts 338°
2026-04-24 19:47 26.36972 32.57414 23807 ft 329 kts 338°
2026-04-24 19:47 26.39202 32.56723 23808 ft 336 kts 339°
2026-04-24 19:48 26.41476 32.56018 23804 ft 343 kts 338°
2026-04-24 19:48 26.43786 32.55303 23805 ft 344 kts 339°
2026-04-24 19:48 26.48294 32.53930 23797 ft 328 kts 338°
2026-04-24 19:49 26.52679 32.52575 23797 ft 330 kts 338°
2026-04-24 19:49 26.57146 32.51181 23798 ft 336 kts 338°
2026-04-24 19:50 26.63779 32.49148 23803 ft 324 kts 338°
2026-04-24 19:50 26.65947 32.48472 23802 ft 323 kts 338°
2026-04-24 19:51 26.70267 32.47132 23798 ft 322 kts 338°
2026-04-24 19:51 26.72396 32.46474 23798 ft 321 kts 338°
2026-04-24 19:52 26.76725 32.45130 23797 ft 320 kts 338°
2026-04-24 19:52 26.78848 32.44470 23797 ft 320 kts 338°
2026-04-24 19:52 26.80999 32.43803 23797 ft 320 kts 338°
2026-04-24 19:52 26.83144 32.43136 23797 ft 320 kts 338°
2026-04-24 19:53 26.85287 32.42470 23802 ft 320 kts 338°
2026-04-24 19:53 26.87434 32.41802 23811 ft 319 kts 338°
2026-04-24 19:53 26.91721 32.40468 23811 ft 319 kts 338°
2026-04-24 19:54 26.93835 32.39809 23817 ft 319 kts 338°
2026-04-24 19:54 26.95973 32.39143 23817 ft 319 kts 338°
2026-04-24 19:54 26.98112 32.38477 23820 ft 319 kts 338°
2026-04-24 19:54 27.00250 32.37810 23820 ft 319 kts 338°
2026-04-24 19:55 27.00970 32.37585 23819 ft 319 kts 338°
2026-04-24 19:55 27.04528 32.36475 23817 ft 318 kts 338°
2026-04-24 19:55 27.06667 32.35808 23816 ft 318 kts 338°
2026-04-24 19:55 27.08780 32.35148 23817 ft 318 kts 338°
2026-04-24 19:56 27.10919 32.34479 23817 ft 319 kts 338°
2026-04-24 19:56 27.13059 32.33810 23821 ft 319 kts 338°
2026-04-24 19:56 27.15200 32.33141 23823 ft 319 kts 338°
2026-04-24 19:56 27.17343 32.32471 23821 ft 319 kts 338°
2026-04-24 19:57 27.19461 32.31809 23819 ft 320 kts 338°
2026-04-24 19:57 27.21609 32.31136 23826 ft 320 kts 338°
2026-04-24 19:57 27.23758 32.30463 23826 ft 320 kts 338°
2026-04-24 19:57 27.25905 32.29790 23822 ft 320 kts 338°
2026-04-24 19:58 27.28053 32.29117 23826 ft 320 kts 338°
2026-04-24 19:58 27.30178 32.28451 23829 ft 320 kts 338°
2026-04-24 19:58 27.32324 32.27775 23829 ft 320 kts 338°
2026-04-24 19:58 27.34473 32.27093 23834 ft 320 kts 338°
2026-04-24 19:59 27.36625 32.26410 23826 ft 320 kts 338°
2026-04-24 19:59 27.38046 32.25960 23834 ft 320 kts 338°
2026-04-24 19:59 27.40194 32.25281 23826 ft 320 kts 338°
2026-04-24 19:59 27.43037 32.24381 23834 ft 321 kts 338°
2026-04-24 20:00 27.45183 32.23699 23830 ft 320 kts 338°
2026-04-24 20:00 27.47329 32.23019 23834 ft 320 kts 338°
2026-04-24 20:00 27.48780 32.22559 23836 ft 320 kts 338°
2026-04-24 20:00 27.50906 32.21885 23827 ft 320 kts 338°
2026-04-24 20:01 27.53055 32.21203 23850 ft 320 kts 338°
2026-04-24 20:01 27.55201 32.20521 23848 ft 321 kts 338°
2026-04-24 20:01 27.57353 32.19837 23843 ft 321 kts 338°
2026-04-24 20:01 27.60208 32.18931 23840 ft 321 kts 338°
2026-04-24 20:02 27.61634 32.18478 23844 ft 321 kts 338°
2026-04-24 20:02 27.63781 32.17794 23858 ft 321 kts 338°
2026-04-24 20:02 27.65927 32.17111 23870 ft 321 kts 338°
2026-04-24 20:02 27.68082 32.16426 23873 ft 321 kts 338°
2026-04-24 20:03 27.70229 32.15742 23873 ft 321 kts 339°
2026-04-24 20:03 27.72380 32.15055 23876 ft 320 kts 339°
2026-04-24 20:03 27.74525 32.14370 23873 ft 320 kts 339°
2026-04-24 20:03 27.76669 32.13687 23883 ft 320 kts 339°
2026-04-24 20:04 27.78819 32.13003 23882 ft 320 kts 339°
2026-04-24 20:04 27.80933 32.12329 23881 ft 320 kts 339°
2026-04-24 20:04 27.83068 32.11647 23886 ft 319 kts 339°
2026-04-24 20:04 27.85226 32.10957 23886 ft 319 kts 339°
2026-04-24 20:05 27.87343 32.10281 23894 ft 319 kts 339°
2026-04-24 20:05 27.89476 32.09600 23894 ft 319 kts 339°
2026-04-24 20:05 27.91621 32.08915 23895 ft 319 kts 339°
2026-04-24 20:05 27.93763 32.08229 23892 ft 319 kts 339°
2026-04-24 20:06 27.95889 32.07549 23897 ft 319 kts 339°
2026-04-24 20:06 27.98042 32.06859 23907 ft 320 kts 339°
2026-04-24 20:06 28.00186 32.06173 23907 ft 320 kts 339°
2026-04-24 20:06 28.02305 32.05494 23906 ft 320 kts 339°
2026-04-24 20:07 28.03756 32.05029 23909 ft 320 kts 339°
2026-04-24 20:07 28.06615 32.04129 23909 ft 321 kts 339°
2026-04-24 20:07 28.08773 32.03461 23910 ft 321 kts 340°
2026-04-24 20:07 28.10906 32.02797 23910 ft 321 kts 339°
2026-04-24 20:08 28.13063 32.02119 23907 ft 321 kts 339°
2026-04-24 20:08 28.15219 32.01440 23907 ft 321 kts 339°
2026-04-24 20:08 28.17376 32.00764 23907 ft 321 kts 339°
2026-04-24 20:08 28.19509 32.00097 23907 ft 321 kts 339°
2026-04-24 20:09 28.21669 31.99420 23901 ft 321 kts 339°
2026-04-24 20:09 28.23837 31.98739 23903 ft 321 kts 339°
2026-04-24 20:09 28.26003 31.98058 23901 ft 322 kts 339°
2026-04-24 20:09 28.28138 31.97388 23902 ft 321 kts 339°
2026-04-24 20:10 28.30295 31.96711 23897 ft 321 kts 339°
2026-04-24 20:10 28.32450 31.96033 23894 ft 321 kts 339°
2026-04-24 20:10 28.34603 31.95356 23894 ft 321 kts 339°
2026-04-24 20:10 28.36733 31.94685 23893 ft 321 kts 339°
2026-04-24 20:11 28.38885 31.94008 23891 ft 320 kts 339°
2026-04-24 20:11 28.41043 31.93328 23886 ft 320 kts 339°
2026-04-24 20:11 28.43200 31.92648 23885 ft 321 kts 339°
2026-04-24 20:11 28.45351 31.91970 23885 ft 320 kts 339°
2026-04-24 20:12 28.47500 31.91293 23886 ft 320 kts 339°
2026-04-24 20:12 28.49625 31.90622 23886 ft 321 kts 339°
2026-04-24 20:12 28.51774 31.89943 23891 ft 320 kts 339°
2026-04-24 20:12 28.53934 31.89262 23883 ft 321 kts 339°
2026-04-24 20:13 28.56108 31.88576 23883 ft 320 kts 339°
2026-04-24 20:13 28.58237 31.87903 23883 ft 320 kts 339°
2026-04-24 20:13 28.60392 31.87222 23883 ft 320 kts 339°
2026-04-24 20:13 28.62550 31.86539 23883 ft 320 kts 339°
2026-04-24 20:14 28.63978 31.86088 23877 ft 319 kts 339°
2026-04-24 20:14 28.66816 31.85190 23874 ft 319 kts 339°
2026-04-24 20:14 28.68966 31.84508 23875 ft 319 kts 339°
2026-04-24 20:14 28.71112 31.83827 23874 ft 319 kts 339°
2026-04-24 20:15 28.73233 31.83155 23874 ft 319 kts 339°
2026-04-24 20:15 28.75375 31.82477 23870 ft 318 kts 339°
2026-04-24 20:15 28.77488 31.81807 23870 ft 317 kts 339°
2026-04-24 20:15 28.79620 31.81130 23874 ft 318 kts 339°
2026-04-24 20:16 28.81754 31.80453 23870 ft 317 kts 339°
2026-04-24 20:16 28.83886 31.79776 23878 ft 317 kts 339°
2026-04-24 20:16 28.86023 31.79095 23873 ft 317 kts 339°
2026-04-24 20:16 28.88127 31.78425 23870 ft 317 kts 339°
2026-04-24 20:17 28.90252 31.77749 23870 ft 317 kts 339°
2026-04-24 20:17 28.94602 31.76355 23313 ft 335 kts 339°
2026-04-24 20:17 28.96867 31.75621 22908 ft 342 kts 339°
2026-04-24 20:18 28.98393 31.75129 22656 ft 345 kts 339°
2026-04-24 20:18 29.01513 31.74119 22134 ft 350 kts 339°
2026-04-24 20:18 29.03863 31.73348 21749 ft 352 kts 339°
2026-04-24 20:18 29.06218 31.72573 21383 ft 353 kts 339°
2026-04-24 20:19 29.08579 31.71803 21005 ft 353 kts 340°
2026-04-24 20:19 29.10918 31.71048 20637 ft 353 kts 340°
2026-04-24 20:19 29.13286 31.70287 20265 ft 352 kts 340°
2026-04-24 20:19 29.15643 31.69526 19901 ft 351 kts 340°
2026-04-24 20:20 29.17990 31.68764 19544 ft 347 kts 340°
2026-04-24 20:20 29.20286 31.68019 19194 ft 339 kts 340°
2026-04-24 20:20 29.22541 31.67289 18836 ft 334 kts 340°
2026-04-24 20:20 29.24742 31.66581 18493 ft 329 kts 340°
2026-04-24 20:21 29.26952 31.65873 18137 ft 325 kts 340°
2026-04-24 20:21 29.29126 31.65173 17739 ft 322 kts 340°
2026-04-24 20:21 29.31255 31.64481 17347 ft 320 kts 340°
2026-04-24 20:21 29.33398 31.63783 16956 ft 318 kts 340°
2026-04-24 20:22 29.35530 31.63089 16573 ft 316 kts 341°
2026-04-24 20:22 29.37631 31.62405 16147 ft 316 kts 341°
2026-04-24 20:22 29.39778 31.61697 15548 ft 321 kts 340°
2026-04-24 20:22 29.41915 31.60982 14969 ft 324 kts 341°
2026-04-24 20:23 29.44099 31.60269 14397 ft 326 kts 341°
2026-04-24 20:23 29.46296 31.59565 13833 ft 327 kts 341°
2026-04-24 20:23 29.48469 31.58862 13233 ft 327 kts 341°
2026-04-24 20:23 29.50664 31.58144 12622 ft 327 kts 341°
2026-04-24 20:24 29.52114 31.57668 12216 ft 326 kts 341°
2026-04-24 20:24 29.54926 31.56611 11416 ft 309 kts 334°
2026-04-24 20:24 29.56819 31.55582 10949 ft 297 kts 330°
2026-04-24 20:24 29.58584 31.54516 10879 ft 276 kts 328°
2026-04-24 20:25 29.60212 31.53496 10879 ft 257 kts 328°
2026-04-24 20:25 29.61715 31.52535 10873 ft 239 kts 327°
2026-04-24 20:25 29.63127 31.51623 10865 ft 226 kts 328°
2026-04-24 20:25 29.64458 31.50747 10864 ft 215 kts 327°
2026-04-24 20:26 29.65732 31.49904 10869 ft 207 kts 327°
2026-04-24 20:26 29.66958 31.49090 10869 ft 200 kts 327°
2026-04-24 20:26 29.68167 31.48293 10688 ft 205 kts 327°
2026-04-24 20:26 29.69445 31.47449 10310 ft 217 kts 327°
2026-04-24 20:27 29.70776 31.46553 9941 ft 225 kts 327°
2026-04-24 20:27 29.72123 31.45630 9562 ft 230 kts 327°
2026-04-24 20:27 29.73511 31.44668 9160 ft 233 kts 327°
2026-04-24 20:27 29.74899 31.43683 8761 ft 235 kts 327°
2026-04-24 20:28 29.76294 31.42678 8368 ft 236 kts 327°
2026-04-24 20:28 29.77671 31.41683 7981 ft 236 kts 327°
2026-04-24 20:28 29.79062 31.40673 7593 ft 235 kts 327°
2026-04-24 20:28 29.80445 31.39656 7209 ft 235 kts 327°
2026-04-24 20:29 29.81353 31.38984 6957 ft 234 kts 327°
2026-04-24 20:29 29.83164 31.37628 6456 ft 232 kts 327°
2026-04-24 20:29 29.84510 31.36605 6068 ft 231 kts 327°
2026-04-24 20:29 29.85827 31.35589 5676 ft 229 kts 327°
2026-04-24 20:30 29.87137 31.34557 5285 ft 227 kts 327°
2026-04-24 20:30 29.88439 31.33513 4894 ft 226 kts 326°
2026-04-24 20:30 29.89725 31.32471 4537 ft 224 kts 326°
2026-04-24 20:30 29.90948 31.31465 4425 ft 211 kts 327°
2026-04-24 20:31 29.92090 31.30492 4400 ft 198 kts 326°
2026-04-24 20:31 29.93163 31.29550 4391 ft 188 kts 326°
2026-04-24 20:31 29.94184 31.28648 4389 ft 181 kts 326°
2026-04-24 20:31 29.95170 31.27766 4357 ft 177 kts 326°
2026-04-24 20:32 29.96133 31.26894 4200 ft 180 kts 326°
2026-04-24 20:32 29.97180 31.25950 3733 ft 199 kts 326°
2026-04-24 20:32 29.98113 31.24710 3239 ft 218 kts 297°
2026-04-24 20:32 29.98235 31.22933 2646 ft 237 kts 259°
2026-04-24 20:33 29.97318 31.21381 2413 ft 233 kts 216°
2026-04-24 20:33 29.95842 31.20914 2399 ft 215 kts 172°
2026-04-24 20:33 29.94617 31.21644 2390 ft 194 kts 126°
2026-04-24 20:33 29.94277 31.23024 2392 ft 178 kts 76°
2026-04-24 20:34 29.94974 31.24116 2397 ft 174 kts 27°
2026-04-24 20:34 29.96130 31.24529 2406 ft 174 kts 14°
2026-04-24 20:34 29.97321 31.24814 2405 ft 174 kts 17°
2026-04-24 20:34 29.98280 31.25611 2394 ft 172 kts 50°